Regional Weather Roundup
Issued by NWS

Home | Current Version | Previous Version | Graphics & Text | Print | Product List | Glossary On
Versions: 1 2 3 4 5 6 7 8 9 10 11 12 13 14 15 16 17 18 19 20 21 22 23 24 25 26 27 28 29 30 31 32 33 34 35 36 37 38 39 40 41 42 43 44 45 46 47 48 49 50
976
ASUS43 KOAX 241110
RWRNE

WEATHER ROUNDUP FOR NEBRASKA
NATIONAL WEATHER SERVICE OMAHA NE
600 AM CDT TUE APR 24 2018

NOTES: SATELLITE DATA IS BEING USED TO AUGMENT CLOUD COVER ABOVE
       12000 FEET.
       "FAIR" INDICATES FEW OR NO CLOUDS BELOW 12,000 FEET WITH NO
       SIGNIFICANT WEATHER AND/OR OBSTRUCTIONS TO VISIBILITY.


NEZ001>004-019>022-054>056-241200-
NEBRASKA PANHANDLE

CITY           SKY/WX    TMP DP  RH WIND       PRES   REMARKS
SCOTTSBLUFF    CLOUDY    37  32  82 NW18      30.35S WCI  27
ALLIANCE       CLOUDY    36  33  89 NW21      30.31R WCI  25
CHADRON        CLOUDY    38  33  82 NW12      30.35R WCI  30
GORDON         CLOUDY    36  34  93 N24G32    30.30R FOG     WCI  24
KIMBALL        LGT SNOW  33  32  96 N18G26    30.34R WCI  22
SIDNEY         CLOUDY    35  32  88 N23G31    30.31R WCI  23
$$

NEZ057>060-069>072-079>082-241200-
SOUTHWEST NEBRASKA

CITY           SKY/WX    TMP DP  RH WIND       PRES   REMARKS
NORTH PLATTE   LGT RAIN  45  39  79 N15G28    30.22R
IMPERIAL       LGT RAIN  40  39  97 NW21G30   30.25R WCI  30
LEXINGTON      LGT RAIN  51  46  83 W16G22    30.18R
MCCOOK         CLOUDY    46  41  82 NW22G29   30.21R
OGALLALA       LGT RAIN  41  38  89 N25G32    30.24R
$$

NEZ005>010-023>029-035>040-094-241200-
NORTH CENTRAL NEBRASKA

CITY           SKY/WX    TMP DP  RH WIND       PRES   REMARKS
VALENTINE      CLOUDY    41  38  89 W21G30    30.22R
AINSWORTH      CLOUDY    41  40  95 NW14G23   30.20R
BROKEN BOW     CLOUDY    47  42  83 NW20G28   30.17R
O`NEILL        CLOUDY    51  48  89 NW16      30.16R
ORD            CLOUDY    50  44  80 N9        30.14R
THEDFORD       CLOUDY    41  38  90 NW15G22   30.24R
$$

NEZ041-046>049-061>064-073>077-083>087-241200-
SOUTH CENTRAL NEBRASKA

CITY           SKY/WX    TMP DP  RH WIND       PRES   REMARKS
GRAND ISLAND   MOCLDY    45  40  82 N3        30.13R
AURORA         MOCLDY    45  35  68 CALM      30.12R
HASTINGS       CLOUDY    45  36  70 CALM      30.12R
HEBRON         PTCLDY    39  35  84 CALM      30.11S
HOLDREGE       MOCLDY    47  41  78 CALM      30.15R
KEARNEY        CLOUDY    46  41  82 NW6       30.15R
YORK             N/A     45  32  61 CALM      30.12R
$$

NEZ011>018-030>034-042>045-241200-
NORTHEAST NEBRASKA

CITY           SKY/WX    TMP DP  RH WIND       PRES   REMARKS
NORFOLK        PTCLDY    44  39  82 SE5       30.10F
ALBION         CLOUDY    45  39  79 CALM      30.13R
BLAIR          CLEAR     47  38  72 NE8       30.11R
COLUMBUS       CLEAR     43  35  73 CALM      30.13R
FREMONT        CLEAR     42  35  75 CALM      30.12R
TEKAMAH        CLEAR     37  35  92 NW6       30.12S WCI  32
WAYNE          CLEAR     38  37  97 SE3       30.12R
$$

NEZ050>053-065>068-078-088>093-241200-
SOUTHEAST NEBRASKA

CITY           SKY/WX    TMP DP  RH WIND       PRES   REMARKS
LINCOLN        PTCLDY    40  32  73 N6        30.13R
OMAHA EPPLEY   PTCLDY    38  34  85 N8        30.11S WCI  32
BEATRICE       CLEAR     38  33  81 CALM      30.11S
FALLS CITY     CLEAR     43  31  62 NW3       30.10S
NEBRASKA CITY  CLEAR     47  32  56 NE3       30.10S
PLATTSMOUTH    CLEAR     49  37  62 NE3       30.10S
$$

NEZ044-045-051>053-067-241200-
OMAHA AREA

CITY           SKY/WX    TMP DP  RH WIND       PRES   REMARKS
OMAHA EPPLEY   PTCLDY    38  34  85 N8        30.11S WCI  32
BLAIR          CLEAR     47  38  72 NE8       30.11R
FREMONT        CLEAR     42  35  75 CALM      30.12R
MILLARD        CLEAR     45  38  76 CALM      30.11S
PLATTSMOUTH    CLEAR     49  37  62 NE3       30.10S
WAHOO          FAIR      43  32  64 CALM      30.11S
$$




USA.gov is the U.S. government's official web portal to all federal, state and local government web resources and services.